Camden, SC

3:10 PM EST on February 21, 2018 (GMT -0500)
Woodward

Weather History for KCDN - February, 2012

Change the Weather History Date:

Thursday, February 2, 2012

  Actual Average (KSSC) Record (KSSC)
Temperature  
Mean Temperature 62 °F -  
Max Temperature 71 °F 54 °F 75 °F (2017)
Min Temperature 53 °F 34 °F 22 °F (2013)
Degree Days  
Heating Degree Days 3    
Growing Degree Days 12 (Base 50)    
Moisture  
Dew Point 51 °F    
Average Humidity 72    
Maximum Humidity 100    
Minimum Humidity 38    
Precipitation  
Precipitation 0.00 in - - ()
Sea Level Pressure  
Sea Level Pressure 30.13 in    
Wind  
Wind Speed 5 mph (WNW)    
Max Wind Speed 14 mph    
Max Gust Speed 16 mph    
Visibility 9 miles    
Events Rain    
Averages and records for this station are not official NWS values.
T = Trace of Precipitation, MM = Missing Value Source: NWS Daily Summary

Daily Weather History Graph

Daily Weather History Graph

Search for Another Location

Airport or City:

Trip Planner

Search our weather history database for the weather conditions in past years. The results will help you decide how hot, cold, wet, or windy it might be!

Date:

Astronomy

Feb. 02, 2012 Rise Set
Actual Time 7:19 AM EST 5:52 PM EST
Civil Twilight 6:53 AM EST 6:19 PM EST
Nautical Twilight 6:23 AM EST 6:49 PM EST
Astronomical Twilight 5:53 AM EST 7:18 PM EST
Moon 1:08 PM EST (2/2) 2:55 AM EST (2/2)
Length of Visible Light 11h 26m
Length of Day
10h 33m
Waxing Gibbous, 73% of the Moon is Illuminated
Feb 2
Waxing Gibbous
Feb 7
Full
Feb 14
Last Quarter
Feb 21
New
Feb 29
First Quarter

Hourly Weather History & Observations

Time (EST) Temp. Dew Point Humidity Pressure Visibility Wind Dir Wind Speed Gust Speed Precip Events Conditions
12:15 AM 60.8 °F 51.8 °F 72% 30.10 in 10.0 mi Calm Calm - 0.00 in   Mostly Cloudy
12:35 AM 60.8 °F 51.8 °F 72% 30.09 in 10.0 mi SW 4.6 mph - 0.00 in   Overcast
12:55 AM 60.8 °F 53.6 °F 77% 30.09 in 10.0 mi SW 3.5 mph - 0.00 in   Overcast
1:15 AM 59.0 °F 53.6 °F 82% 30.09 in 10.0 mi Calm Calm - 0.00 in   Overcast
1:35 AM 60.8 °F 53.6 °F 77% 30.10 in 10.0 mi SW 5.8 mph - 0.00 in   Overcast
1:55 AM 59.0 °F 53.6 °F 82% 30.10 in 5.0 mi WSW 4.6 mph - 0.00 in Rain Light Rain
2:15 AM 57.2 °F 55.4 °F 94% 30.10 in 5.0 mi WSW 4.6 mph - 0.00 in   Overcast
2:35 AM 57.2 °F 55.4 °F 94% 30.09 in 4.0 mi SW 3.5 mph - 0.00 in   Light Drizzle
2:55 AM 57.2 °F 55.4 °F 94% 30.09 in 5.0 mi SW 3.5 mph - 0.00 in   Light Drizzle
3:15 AM 57.2 °F 55.4 °F 94% 30.09 in 4.0 mi WSW 3.5 mph - 0.00 in   Light Drizzle
3:35 AM 57.2 °F 55.4 °F 94% 30.08 in 7.0 mi SW 3.5 mph - 0.00 in   Overcast
3:55 AM 57.2 °F 55.4 °F 94% 30.08 in 10.0 mi SW 4.6 mph - 0.00 in   Overcast
4:15 AM 57.2 °F 55.4 °F 94% 30.08 in 5.0 mi WSW 3.5 mph - 0.00 in   Overcast
4:35 AM 57.2 °F 57.2 °F 100% 30.07 in 5.0 mi SSW 4.6 mph - 0.00 in   Overcast
4:55 AM 57.2 °F 57.2 °F 100% 30.06 in 6.0 mi SW 3.5 mph - 0.00 in   Overcast
5:15 AM 57.2 °F 57.2 °F 100% 30.06 in 5.0 mi WSW 4.6 mph - 0.00 in   Overcast
5:35 AM 57.2 °F 57.2 °F 100% 30.06 in 4.0 mi SW 4.6 mph - 0.00 in   Overcast
5:55 AM 57.2 °F 57.2 °F 100% 30.07 in 6.0 mi WSW 8.1 mph - 0.00 in   Overcast
6:15 AM 57.2 °F 57.2 °F 100% 30.08 in 8.0 mi WSW 8.1 mph - 0.00 in   Overcast
6:35 AM 57.2 °F 57.2 °F 100% 30.08 in 10.0 mi West 9.2 mph - 0.00 in   Mostly Cloudy
6:55 AM 57.2 °F 57.2 °F 100% 30.08 in 10.0 mi SW 3.5 mph - 0.00 in   Clear
7:15 AM 55.4 °F 55.4 °F 100% 30.10 in 7.0 mi West 4.6 mph - 0.00 in   Partly Cloudy
7:35 AM 57.2 °F 55.4 °F 94% 30.10 in 8.0 mi West 6.9 mph - 0.00 in   Mostly Cloudy
7:55 AM 57.2 °F 55.4 °F 94% 30.11 in 8.0 mi West 9.2 mph - 0.00 in   Overcast
8:15 AM 57.2 °F 55.4 °F 94% 30.12 in 10.0 mi West 8.1 mph - 0.00 in   Overcast
8:35 AM 57.2 °F 55.4 °F 94% 30.12 in 10.0 mi West 8.1 mph - 0.00 in   Overcast
8:55 AM 57.2 °F 55.4 °F 94% 30.13 in 10.0 mi West 9.2 mph - 0.00 in   Overcast
9:15 AM 59.0 °F 55.4 °F 88% 30.13 in 10.0 mi West 6.9 mph - 0.00 in   Overcast
9:35 AM 59.0 °F 55.4 °F 88% 30.14 in 10.0 mi West 6.9 mph - 0.00 in   Overcast
9:55 AM 59.0 °F 55.4 °F 88% 30.14 in 10.0 mi West 8.1 mph - 0.00 in   Overcast
10:15 AM 60.8 °F 55.4 °F 82% 30.15 in 10.0 mi WNW 9.2 mph - 0.00 in   Overcast
10:35 AM 60.8 °F 53.6 °F 77% 30.15 in 10.0 mi West 8.1 mph - 0.00 in   Mostly Cloudy
10:55 AM 62.6 °F 55.4 °F 77% 30.16 in 10.0 mi WNW 8.1 mph - 0.00 in   Scattered Clouds
11:15 AM 64.4 °F 55.4 °F 73% 30.15 in 10.0 mi NW 8.1 mph - 0.00 in   Scattered Clouds
11:35 AM 64.4 °F 53.6 °F 68% 30.15 in 10.0 mi WNW 6.9 mph - 0.00 in   Partly Cloudy
11:55 AM 66.2 °F 53.6 °F 64% 30.14 in 10.0 mi NW 8.1 mph - 0.00 in   Clear
12:15 PM 66.2 °F 53.6 °F 64% 30.14 in 10.0 mi NW 11.5 mph - 0.00 in   Clear
12:35 PM 66.2 °F 51.8 °F 60% 30.13 in 10.0 mi NW 13.8 mph - 0.00 in   Clear
12:55 PM 68.0 °F 51.8 °F 56% 30.12 in 10.0 mi WNW 11.5 mph 16.1 mph 0.00 in   Clear
1:15 PM 68.0 °F 51.8 °F 56% 30.12 in 10.0 mi WNW 9.2 mph - 0.00 in   Clear
1:35 PM 69.8 °F 51.8 °F 53% 30.11 in 10.0 mi NW 5.8 mph - 0.00 in   Clear
1:55 PM 69.8 °F 51.8 °F 53% 30.10 in 10.0 mi NW 8.1 mph - 0.00 in   Clear
2:15 PM 69.8 °F 51.8 °F 53% 30.11 in 10.0 mi West 9.2 mph - 0.00 in   Partly Cloudy
2:35 PM 71.6 °F 50.0 °F 46% 30.11 in 10.0 mi NNW 9.2 mph - 0.00 in   Mostly Cloudy
2:55 PM 69.8 °F 48.2 °F 46% 30.11 in 10.0 mi NNW 9.2 mph - 0.00 in   Partly Cloudy
3:15 PM 71.6 °F 48.2 °F 43% 30.11 in 10.0 mi NNW 9.2 mph - 0.00 in   Partly Cloudy
3:35 PM 69.8 °F 48.2 °F 46% 30.11 in 10.0 mi NNW 5.8 mph - 0.00 in   Clear
3:55 PM 71.6 °F 46.4 °F 41% 30.12 in 10.0 mi NW 6.9 mph - 0.00 in   Clear
4:15 PM 71.6 °F 44.6 °F 38% 30.12 in 10.0 mi NNW 8.1 mph - 0.00 in   Clear
4:35 PM 69.8 °F 46.4 °F 43% 30.13 in 10.0 mi NNW 6.9 mph - 0.00 in   Clear
4:55 PM 69.8 °F 44.6 °F 40% 30.13 in 10.0 mi NNW 6.9 mph - 0.00 in   Clear
5:15 PM 69.8 °F 46.4 °F 43% 30.14 in 10.0 mi Calm Calm - 0.00 in   Clear
5:35 PM 68.0 °F 46.4 °F 46% 30.15 in 10.0 mi Calm Calm - 0.00 in   Clear
5:55 PM 64.4 °F 46.4 °F 52% 30.15 in 10.0 mi Calm Calm - 0.00 in   Clear
6:15 PM 60.8 °F 48.2 °F 63% 30.16 in 10.0 mi Calm Calm - 0.00 in   Clear
6:35 PM 59.0 °F 48.2 °F 67% 30.17 in 10.0 mi North 3.5 mph - 0.00 in   Clear
6:55 PM 57.2 °F 48.2 °F 72% 30.18 in 10.0 mi NNW 3.5 mph - 0.00 in   Clear
7:15 PM 57.2 °F 48.2 °F 72% 30.19 in 10.0 mi Calm Calm - 0.00 in   Clear
7:35 PM 57.2 °F 44.6 °F 63% 30.20 in 10.0 mi North 5.8 mph - 0.00 in   Clear
7:55 PM 57.2 °F 42.8 °F 59% 30.21 in 10.0 mi North 3.5 mph - 0.00 in   Clear
8:15 PM 55.4 °F 42.8 °F 63% 30.22 in 10.0 mi NNW 4.6 mph - 0.00 in   Clear
8:35 PM 53.6 °F 42.8 °F 67% 30.23 in 10.0 mi North 5.8 mph - 0.00 in   Clear
8:55 PM 55.4 °F 39.2 °F 54% 30.24 in 10.0 mi NE 3.5 mph - 0.00 in   Clear
9:15 PM 55.4 °F 39.2 °F 54% 30.25 in 10.0 mi NNE 4.6 mph - 0.00 in   Clear
9:35 PM 55.4 °F 37.4 °F 51% 30.25 in 10.0 mi NNW 4.6 mph - 0.00 in   Clear
9:55 PM 53.6 °F 37.4 °F 54% 30.26 in 10.0 mi North 9.2 mph - 0.00 in   Clear
10:15 PM 55.4 °F 37.4 °F 51% 30.28 in 10.0 mi North 10.4 mph - 0.00 in   Clear
10:55 PM 53.6 °F 37.4 °F 54% 30.30 in 10.0 mi NNE 6.9 mph - 0.00 in   Clear
11:15 PM 53.6 °F 35.6 °F 51% 30.31 in 10.0 mi NNE 8.1 mph - 0.00 in   Clear
11:35 PM 55.4 °F 35.6 °F 47% 30.31 in 10.0 mi NNE 10.4 mph - 0.00 in   Clear
11:55 PM 55.4 °F 33.8 °F 44% 30.31 in 10.0 mi NNE 9.2 mph - 0.00 in   Clear